| time (UTC) | temp C | wind direction | speed KPH | gust KPH | rain 1hr cm | rain 24hr cm | rain mn cm | humidity % | barometer mb |
| 20260507075827 | 1 | 133 | 0.0 | 0.0 | 0.00 | 0.00 | 0.00 | 71 | 1028.7 |
| 20260507075323 | 1 | 137 | 0.0 | 0.0 | 0.00 | 0.00 | 0.00 | 72 | 1028.4 |
| 20260507074820 | 1 | 131 | 0.0 | 0.0 | 0.00 | 0.00 | 0.00 | 72 | 1028.6 |
| 20260507074318 | 1 | 134 | 0.0 | 0.0 | 0.00 | 0.00 | 0.00 | 70 | 1028.6 |
| 20260507073815 | 1 | 137 | 0.0 | 0.0 | 0.00 | 0.00 | 0.00 | 69 | 1028.4 |
| 20260507073311 | 1 | 128 | 0.0 | 0.0 | 0.00 | 0.00 | 0.00 | 68 | 1028.5 |
| 20260507072809 | 1 | 135 | 0.0 | 0.0 | 0.00 | 0.00 | 0.00 | 69 | 1028.6 |
| 20260507072307 | 1 | 137 | 0.0 | 0.0 | 0.00 | 0.00 | 0.00 | 68 | 1028.6 |
| 20260507071803 | 1 | 141 | 0.0 | 0.0 | 0.00 | 0.00 | 0.00 | 69 | 1028.2 |
| 20260507071259 | 1 | 137 | 0.0 | 0.0 | 0.00 | 0.00 | 0.00 | 70 | 1028.4 |
| 20260507070756 | 2 | 137 | 0.0 | 0.0 | 0.00 | 0.00 | 0.00 | 69 | 1028.4 |
| 20260507070254 | 1 | 134 | 0.0 | 0.0 | 0.00 | 0.00 | 0.00 | 69 | 1028.6 |
| 20260507065750 | 2 | 125 | 0.0 | 0.0 | 0.00 | 0.00 | 0.00 | 68 | 1028.7 |
| 20260507065247 | 2 | 136 | 0.0 | 0.0 | 0.00 | 0.00 | 0.00 | 68 | 1028.4 |
| 20260507064744 | 2 | 132 | 0.0 | 0.0 | 0.00 | 0.00 | 0.00 | 67 | 1028.5 |
| 20260507064243 | 2 | 137 | 0.0 | 0.0 | 0.00 | 0.00 | 0.00 | 66 | 1028.6 |
| 20260507063740 | 2 | 136 | 0.0 | 0.0 | 0.00 | 0.00 | 0.00 | 66 | 1028.2 |
| 20260507063237 | 2 | 135 | 0.0 | 0.0 | 0.00 | 0.00 | 0.00 | 64 | 1028.0 |
| 20260507062734 | 2 | 129 | 0.0 | 0.0 | 0.00 | 0.00 | 0.00 | 63 | 1028.1 |
| 20260507062231 | 2 | 137 | 0.0 | 0.0 | 0.00 | 0.00 | 0.00 | 62 | 1028.2 |
| 20260507061729 | 3 | 136 | 0.0 | 0.0 | 0.00 | 0.00 | 0.00 | 60 | 1028.0 |
| 20260507061227 | 3 | 136 | 0.0 | 0.0 | 0.00 | 0.00 | 0.00 | 59 | 1027.7 |
| 20260507060725 | 3 | 137 | 0.0 | 0.0 | 0.00 | 0.00 | 0.00 | 58 | 1027.7 |
| 20260507060221 | 3 | 140 | 0.0 | 0.0 | 0.00 | 0.00 | 0.00 | 58 | 1027.7 |
| 20260507055717 | 3 | 139 | 0.0 | 0.0 | 0.00 | 0.00 | 0.00 | 58 | 1027.9 |
| 20260507055213 | 3 | 136 | 0.0 | 0.0 | 0.00 | 0.00 | 0.00 | 56 | 1027.9 |
| 20260507054709 | 3 | 137 | 0.0 | 0.0 | 0.00 | 0.00 | 0.00 | 55 | 1027.6 |
| 20260507054206 | 4 | 138 | 0.0 | 0.0 | 0.00 | 0.00 | 0.00 | 56 | 1027.7 |
| 20260507053704 | 4 | 134 | 0.0 | 0.0 | 0.00 | 0.00 | 0.00 | 55 | 1027.7 |
| 20260507053201 | 4 | 134 | 0.0 | 0.0 | 0.00 | 0.00 | 0.00 | 54 | 1027.6 |
| 20260507052700 | 4 | 144 | 0.0 | 0.0 | 0.00 | 0.00 | 0.00 | 55 | 1027.6 |
| 20260507052155 | 5 | 136 | 0.0 | 0.0 | 0.00 | 0.00 | 0.00 | 53 | 1027.6 |
| 20260507051653 | 5 | 143 | 0.0 | 0.0 | 0.00 | 0.00 | 0.00 | 55 | 1027.5 |
| 20260507051150 | 5 | 150 | 0.0 | 0.0 | 0.00 | 0.00 | 0.00 | 55 | 1027.9 |
| 20260507050647 | 5 | 137 | 0.0 | 0.0 | 0.00 | 0.00 | 0.00 | 55 | 1027.4 |
| 20260507050143 | 5 | 138 | 0.0 | 0.0 | 0.00 | 0.00 | 0.00 | 54 | 1027.4 |
| 20260507045640 | 5 | 136 | 0.0 | 0.0 | 0.00 | 0.00 | 0.00 | 54 | 1027.4 |
| 20260507045137 | 5 | 131 | 0.0 | 0.0 | 0.00 | 0.00 | 0.00 | 55 | 1027.1 |
| 20260507044634 | 5 | 140 | 0.0 | 0.0 | 0.00 | 0.00 | 0.00 | 55 | 1027.5 |
| 20260507044126 | 6 | 137 | 0.0 | 0.0 | 0.00 | 0.00 | 0.00 | 54 | 1027.2 |
| 20260507043621 | 6 | 136 | 0.0 | 0.0 | 0.00 | 0.00 | 0.00 | 50 | 1027.1 |
| 20260507043118 | 6 | 134 | 0.0 | 0.0 | 0.00 | 0.00 | 0.00 | 50 | 1027.2 |
| 20260507042614 | 6 | 131 | 0.0 | 0.0 | 0.00 | 0.00 | 0.00 | 51 | 1027.1 |
| 20260507042109 | 6 | 139 | 0.0 | 0.0 | 0.00 | 0.00 | 0.00 | 51 | 1027.4 |
| 20260507041607 | 6 | 133 | 0.0 | 0.0 | 0.00 | 0.00 | 0.00 | 53 | 1027.2 |
| 20260507041103 | 6 | 141 | 0.0 | 0.0 | 0.00 | 0.00 | 0.00 | 52 | 1027.1 |
| 20260507040600 | 6 | 138 | 0.0 | 0.0 | 0.00 | 0.00 | 0.00 | 53 | 1026.9 |
| 20260507040056 | 6 | 139 | 0.0 | 0.0 | 0.00 | 0.00 | 0.00 | 52 | 1027.0 |
| 20260507035552 | 6 | 145 | 0.0 | 0.0 | 0.00 | 0.00 | 0.00 | 51 | 1027.0 |
| 20260507035049 | 7 | 136 | 0.0 | 0.0 | 0.00 | 0.00 | 0.00 | 51 | 1027.0 |
| 20260507034546 | 7 | 131 | 0.0 | 0.0 | 0.00 | 0.00 | 0.00 | 50 | 1026.9 |
| 20260507034044 | 7 | 134 | 0.0 | 0.0 | 0.00 | 0.00 | 0.00 | 50 | 1026.6 |
| 20260507033541 | 7 | 136 | 0.0 | 0.0 | 0.00 | 0.00 | 0.00 | 49 | 1026.6 |
| 20260507033038 | 7 | 143 | 0.0 | 0.0 | 0.00 | 0.00 | 0.00 | 48 | 1026.6 |
| 20260507032535 | 8 | 138 | 0.0 | 0.0 | 0.00 | 0.00 | 0.00 | 47 | 1026.6 |
| 20260507032032 | 8 | 144 | 0.0 | 0.0 | 0.00 | 0.00 | 0.00 | 45 | 1026.6 |
| 20260507031528 | 8 | 139 | 0.0 | 0.0 | 0.00 | 0.00 | 0.00 | 45 | 1026.5 |
| 20260507031025 | 9 | 136 | 0.0 | 0.0 | 0.00 | 0.00 | 0.00 | 46 | 1026.5 |
| 20260507030522 | 10 | 140 | 0.0 | 0.0 | 0.00 | 0.00 | 0.00 | 46 | 1026.4 |
| 20260507030020 | 10 | 138 | 0.0 | 0.0 | 0.00 | 0.00 | 0.00 | 46 | 1026.3 |
| 20260507025516 | 10 | 125 | 0.0 | 0.0 | 0.00 | 0.00 | 0.00 | 45 | 1025.8 |
| 20260507025014 | 10 | 124 | 0.0 | 0.0 | 0.00 | 0.00 | 0.00 | 46 | 1026.1 |
| 20260507024512 | 10 | 126 | 0.0 | 0.0 | 0.00 | 0.00 | 0.00 | 45 | 1026.0 |
| 20260507024008 | 11 | 138 | 0.0 | 0.0 | 0.00 | 0.00 | 0.00 | 45 | 1025.9 |
| 20260507023504 | 11 | 122 | 0.0 | 0.0 | 0.00 | 0.00 | 0.00 | 43 | 1025.9 |
| 20260507023001 | 11 | 142 | 0.0 | 0.0 | 0.00 | 0.00 | 0.00 | 42 | 1025.8 |
| 20260507022458 | 12 | 128 | 0.0 | 0.0 | 0.00 | 0.00 | 0.00 | 41 | 1025.9 |
| 20260507021954 | 12 | 135 | 0.0 | 0.0 | 0.00 | 0.00 | 0.00 | 41 | 1025.4 |
| 20260507021449 | 13 | 128 | 0.0 | 0.0 | 0.00 | 0.00 | 0.00 | 38 | 1025.5 |
| 20260507020947 | 13 | 125 | 0.0 | 0.0 | 0.00 | 0.00 | 0.00 | 38 | 1025.4 |
| 20260507020444 | 15 | 125 | 0.0 | 0.0 | 0.00 | 0.00 | 0.00 | 35 | 1025.3 |
| 20260507015941 | 15 | 136 | 0.0 | 0.0 | 0.00 | 0.00 | 0.00 | 33 | 1025.4 |
| 20260507015439 | 15 | 133 | 0.0 | 0.0 | 0.00 | 0.00 | 0.00 | 31 | 1025.0 |
| 20260507014936 | 16 | 119 | 0.0 | 0.0 | 0.00 | 0.00 | 0.00 | 31 | 1025.4 |
| 20260507014432 | 16 | 148 | 0.0 | 1.6 | 0.00 | 0.00 | 0.00 | 30 | 1025.2 |
| 20260507013923 | 16 | 179 | 0.0 | 0.0 | 0.00 | 0.00 | 0.00 | 30 | 1025.0 |
| 20260507013420 | 16 | 134 | 0.0 | 0.0 | 0.00 | 0.00 | 0.00 | 30 | 1025.2 |
| 20260507012918 | 16 | 184 | 0.0 | 0.0 | 0.00 | 0.00 | 0.00 | 30 | 1025.3 |
| 20260507012414 | 17 | 140 | 0.0 | 0.0 | 0.00 | 0.00 | 0.00 | 30 | 1025.0 |
| 20260507011911 | 17 | 126 | 0.0 | 0.0 | 0.00 | 0.00 | 0.00 | 29 | 1025.2 |
| 20260507011408 | 17 | 182 | 0.0 | 1.6 | 0.00 | 0.00 | 0.00 | 29 | 1025.2 |
| 20260507010907 | 17 | 188 | 4.8 | 6.4 | 0.00 | 0.00 | 0.00 | 28 | 1024.7 |
| 20260507010403 | 17 | 144 | 0.0 | 0.0 | 0.00 | 0.00 | 0.00 | 27 | 1024.9 |
| 20260507005900 | 17 | 136 | 0.0 | 0.0 | 0.00 | 0.00 | 0.00 | 28 | 1024.9 |
| 20260507005357 | 17 | 145 | 0.0 | 0.0 | 0.00 | 0.00 | 0.00 | 27 | 1024.7 |
| 20260507004854 | 17 | 143 | 0.0 | 0.0 | 0.00 | 0.00 | 0.00 | 28 | 1024.7 |
| 20260507004351 | 17 | 138 | 0.0 | 0.0 | 0.00 | 0.00 | 0.00 | 28 | 1024.8 |
| 20260507003850 | 17 | 149 | 0.0 | 0.0 | 0.00 | 0.00 | 0.00 | 28 | 1024.8 |
| 20260507003343 | 16 | 140 | 0.0 | 0.0 | 0.00 | 0.00 | 0.00 | 29 | 1024.8 |
| 20260507002839 | 16 | 298 | 3.2 | 4.8 | 0.00 | 0.00 | 0.00 | 29 | 1024.8 |
| 20260507002335 | 17 | 104 | 0.0 | 0.0 | 0.00 | 0.00 | 0.00 | 28 | 1024.8 |
| 20260507001832 | 17 | 135 | 0.0 | 0.0 | 0.00 | 0.00 | 0.00 | 27 | 1024.8 |
| 20260507001329 | 17 | 142 | 0.0 | 0.0 | 0.00 | 0.00 | 0.00 | 27 | 1024.7 |
| 20260507000825 | 17 | 132 | 0.0 | 0.0 | 0.00 | 0.00 | 0.00 | 27 | 1024.7 |
| 20260507000321 | 16 | 291 | 3.2 | 3.2 | 0.00 | 0.00 | 0.00 | 28 | 1024.5 |
| 20260506235818 | 17 | 143 | 0.0 | 0.0 | 0.00 | 0.00 | 0.00 | 28 | 1024.5 |
| 20260506235314 | 18 | 239 | 3.2 | 4.8 | 0.00 | 0.00 | 0.00 | 26 | 1024.3 |
| 20260506234811 | 18 | 181 | 3.2 | 3.2 | 0.00 | 0.00 | 0.00 | 25 | 1024.5 |
| 20260506234308 | 18 | 228 | 0.0 | 1.6 | 0.00 | 0.00 | 0.00 | 26 | 1024.7 |
| 20260506233806 | 18 | 55 | 3.2 | 4.8 | 0.00 | 0.00 | 0.00 | 26 | 1024.4 |
| 20260506233256 | 18 | 4 | 3.2 | 6.4 | 0.00 | 0.00 | 0.00 | 25 | 1024.3 |
| 20260506232754 | 18 | 182 | 0.0 | 0.0 | 0.00 | 0.00 | 0.00 | 25 | 1024.4 |
| 20260506232254 | 19 | 7 | 1.6 | 3.2 | 0.00 | 0.00 | 0.00 | 24 | 1024.3 |
| 20260506231746 | 18 | 247 | 3.2 | 6.4 | 0.00 | 0.00 | 0.00 | 24 | 1024.3 |
| 20260506231244 | 17 | 114 | 0.0 | 1.6 | 0.00 | 0.00 | 0.00 | 25 | 1024.4 |
| 20260506230740 | 18 | 285 | 3.2 | 4.8 | 0.00 | 0.00 | 0.00 | 24 | 1024.3 |
| 20260506230237 | 18 | 292 | 4.8 | 9.7 | 0.00 | 0.00 | 0.00 | 25 | 1024.4 |
| 20260506225733 | 19 | 273 | 1.6 | 3.2 | 0.00 | 0.00 | 0.00 | 24 | 1024.2 |
| 20260506225230 | 19 | 218 | 4.8 | 6.4 | 0.00 | 0.00 | 0.00 | 24 | 1024.0 |
| 20260506224726 | 19 | 150 | 0.0 | 0.0 | 0.00 | 0.00 | 0.00 | 24 | 1024.4 |
| 20260506224224 | 18 | 307 | 4.8 | 4.8 | 0.00 | 0.00 | 0.00 | 25 | 1024.0 |
| 20260506223720 | 18 | 148 | 1.6 | 3.2 | 0.00 | 0.00 | 0.00 | 24 | 1024.2 |
| 20260506223216 | 18 | 5 | 1.6 | 3.2 | 0.00 | 0.00 | 0.00 | 25 | 1024.3 |
| 20260506222713 | 19 | 211 | 6.4 | 6.4 | 0.00 | 0.00 | 0.00 | 24 | 1024.4 |
| 20260506222208 | 19 | 227 | 1.6 | 4.8 | 0.00 | 0.00 | 0.00 | 24 | 1024.3 |
| 20260506221707 | 19 | 229 | 3.2 | 4.8 | 0.00 | 0.00 | 0.00 | 24 | 1024.5 |
| 20260506221205 | 18 | 190 | 1.6 | 3.2 | 0.00 | 0.00 | 0.00 | 24 | 1024.3 |
| 20260506220701 | 18 | 150 | 1.6 | 4.8 | 0.00 | 0.00 | 0.00 | 27 | 1024.4 |
| 20260506220156 | 18 | 208 | 1.6 | 3.2 | 0.00 | 0.00 | 0.00 | 27 | 1024.4 |
| 20260506215653 | 18 | 195 | 6.4 | 6.4 | 0.00 | 0.00 | 0.00 | 24 | 1024.4 |
| 20260506215148 | 18 | 342 | 4.8 | 6.4 | 0.00 | 0.00 | 0.00 | 25 | 1024.5 |
| 20260506214645 | 18 | 152 | 1.6 | 3.2 | 0.00 | 0.00 | 0.00 | 27 | 1024.5 |
| 20260506214143 | 18 | 241 | 1.6 | 3.2 | 0.00 | 0.00 | 0.00 | 27 | 1024.5 |
| 20260506213641 | 18 | 104 | 0.0 | 1.6 | 0.00 | 0.00 | 0.00 | 28 | 1024.8 |
| 20260506213138 | 18 | 221 | 6.4 | 9.7 | 0.00 | 0.00 | 0.00 | 27 | 1024.5 |
| 20260506212635 | 18 | 285 | 1.6 | 4.8 | 0.00 | 0.00 | 0.00 | 28 | 1024.7 |
| 20260506212130 | 18 | 333 | 4.8 | 9.7 | 0.00 | 0.00 | 0.00 | 28 | 1024.5 |
| 20260506211626 | 18 | 301 | 3.2 | 4.8 | 0.00 | 0.00 | 0.00 | 28 | 1024.8 |
| 20260506211123 | 19 | 317 | 6.4 | 9.7 | 0.00 | 0.00 | 0.00 | 28 | 1024.7 |
| 20260506210620 | 18 | 283 | 6.4 | 9.7 | 0.00 | 0.00 | 0.00 | 30 | 1024.7 |
| 20260506210116 | 18 | 153 | 1.6 | 6.4 | 0.00 | 0.00 | 0.00 | 30 | 1024.4 |
| 20260506205613 | 17 | 109 | 3.2 | 4.8 | 0.00 | 0.00 | 0.00 | 29 | 1024.5 |
| 20260506205108 | 17 | 207 | 6.4 | 6.4 | 0.00 | 0.00 | 0.00 | 29 | 1024.7 |
| 20260506204606 | 17 | 46 | 3.2 | 4.8 | 0.00 | 0.00 | 0.00 | 31 | 1024.8 |
| 20260506204103 | 17 | 144 | 0.0 | 1.6 | 0.00 | 0.00 | 0.00 | 29 | 1024.5 |
| 20260506203602 | 17 | 250 | 1.6 | 3.2 | 0.00 | 0.00 | 0.00 | 31 | 1024.5 |
| 20260506203057 | 18 | 215 | 3.2 | 4.8 | 0.00 | 0.00 | 0.00 | 29 | 1024.8 |
| 20260506202555 | 17 | 180 | 0.0 | 1.6 | 0.00 | 0.00 | 0.00 | 31 | 1024.8 |
| 20260506202051 | 17 | 262 | 4.8 | 6.4 | 0.00 | 0.00 | 0.00 | 29 | 1024.7 |
| 20260506201549 | 17 | 145 | 4.8 | 6.4 | 0.00 | 0.00 | 0.00 | 30 | 1024.7 |
| 20260506201045 | 17 | 258 | 0.0 | 0.0 | 0.00 | 0.00 | 0.00 | 30 | 1024.8 |
| 20260506200542 | 17 | 221 | 4.8 | 4.8 | 0.00 | 0.00 | 0.00 | 28 | 1024.9 |
| 20260506200038 | 17 | 235 | 3.2 | 4.8 | 0.00 | 0.00 | 0.00 | 28 | 1024.7 |
| 20260506195535 | 18 | 195 | 3.2 | 9.7 | 0.00 | 0.00 | 0.00 | 27 | 1024.5 |
| 20260506195032 | 17 | 150 | 3.2 | 4.8 | 0.00 | 0.00 | 0.00 | 31 | 1024.8 |
| 20260506194530 | 17 | 140 | 3.2 | 6.4 | 0.00 | 0.00 | 0.00 | 28 | 1024.8 |
| 20260506194026 | 16 | 175 | 0.0 | 0.0 | 0.00 | 0.00 | 0.00 | 32 | 1024.9 |
| 20260506193523 | 17 | 279 | 1.6 | 3.2 | 0.00 | 0.00 | 0.00 | 31 | 1024.8 |
| 20260506193020 | 17 | 242 | 3.2 | 6.4 | 0.00 | 0.00 | 0.00 | 28 | 1024.7 |
| 20260506192517 | 18 | 19 | 0.0 | 3.2 | 0.00 | 0.00 | 0.00 | 28 | 1024.7 |
| 20260506192013 | 18 | 65 | 4.8 | 9.7 | 0.00 | 0.00 | 0.00 | 30 | 1024.5 |
| 20260506191510 | 18 | 153 | 3.2 | 4.8 | 0.00 | 0.00 | 0.00 | 30 | 1024.5 |
| 20260506191006 | 17 | 166 | 0.0 | 1.6 | 0.00 | 0.00 | 0.00 | 30 | 1024.8 |
| 20260506190503 | 17 | 188 | 0.0 | 1.6 | 0.00 | 0.00 | 0.00 | 28 | 1024.5 |
| 20260506185959 | 17 | 284 | 4.8 | 6.4 | 0.00 | 0.00 | 0.00 | 29 | 1024.7 |
| 20260506185457 | 17 | 250 | 6.4 | 12.9 | 0.00 | 0.00 | 0.00 | 30 | 1024.4 |
| 20260506184954 | 16 | 158 | 0.0 | 0.0 | 0.00 | 0.00 | 0.00 | 32 | 1024.5 |
| 20260506184451 | 16 | 299 | 1.6 | 3.2 | 0.00 | 0.00 | 0.00 | 32 | 1024.4 |
| 20260506183943 | 16 | 132 | 3.2 | 4.8 | 0.00 | 0.00 | 0.00 | 33 | 1024.7 |
| 20260506183438 | 17 | 234 | 6.4 | 9.7 | 0.00 | 0.00 | 0.00 | 31 | 1024.7 |
| 20260506182936 | 16 | 155 | 0.0 | 0.0 | 0.00 | 0.00 | 0.00 | 32 | 1024.7 |
| 20260506182433 | 15 | 284 | 0.0 | 1.6 | 0.00 | 0.00 | 0.00 | 35 | 1024.8 |
| 20260506181930 | 16 | 191 | 0.0 | 3.2 | 0.00 | 0.00 | 0.00 | 34 | 1024.7 |
| 20260506181428 | 17 | 230 | 4.8 | 9.7 | 0.00 | 0.00 | 0.00 | 32 | 1024.5 |
| 20260506180924 | 16 | 141 | 6.4 | 9.7 | 0.00 | 0.00 | 0.00 | 34 | 1024.7 |
| 20260506180420 | 17 | 149 | 0.0 | 1.6 | 0.00 | 0.00 | 0.00 | 32 | 1024.9 |
| 20260506175917 | 15 | 90 | 0.0 | 0.0 | 0.00 | 0.00 | 0.00 | 36 | 1024.8 |
| 20260506175414 | 15 | 188 | 4.8 | 9.7 | 0.00 | 0.00 | 0.00 | 37 | 1024.8 |
| 20260506174911 | 16 | 201 | 8.0 | 12.9 | 0.00 | 0.00 | 0.00 | 35 | 1024.7 |
| 20260506174409 | 15 | 141 | 3.2 | 4.8 | 0.00 | 0.00 | 0.00 | 35 | 1024.8 |
| 20260506173906 | 15 | 63 | 1.6 | 1.6 | 0.00 | 0.00 | 0.00 | 37 | 1024.9 |
| 20260506173402 | 15 | 183 | 6.4 | 9.7 | 0.00 | 0.00 | 0.00 | 37 | 1024.7 |
| 20260506172859 | 15 | 135 | 1.6 | 3.2 | 0.00 | 0.00 | 0.00 | 37 | 1024.7 |
| 20260506172355 | 14 | 274 | 1.6 | 3.2 | 0.00 | 0.00 | 0.00 | 38 | 1024.7 |
| 20260506171853 | 15 | 213 | 3.2 | 3.2 | 0.00 | 0.00 | 0.00 | 38 | 1024.7 |
| 20260506171350 | 15 | 151 | 0.0 | 1.6 | 0.00 | 0.00 | 0.00 | 37 | 1024.5 |
| 20260506170848 | 15 | 219 | 0.0 | 1.6 | 0.00 | 0.00 | 0.00 | 38 | 1024.4 |
| 20260506170344 | 15 | 141 | 1.6 | 3.2 | 0.00 | 0.00 | 0.00 | 39 | 1024.7 |
| 20260506165843 | 15 | 136 | 1.6 | 1.6 | 0.00 | 0.00 | 0.00 | 39 | 1024.5 |
| 20260506165341 | 13 | 179 | 1.6 | 1.6 | 0.00 | 0.00 | 0.00 | 39 | 1024.5 |
| 20260506164837 | 13 | 237 | 4.8 | 6.4 | 0.00 | 0.00 | 0.00 | 38 | 1024.4 |
| 20260506164333 | 14 | 180 | 0.0 | 1.6 | 0.00 | 0.00 | 0.00 | 37 | 1024.4 |
| 20260506163831 | 13 | 215 | 0.0 | 0.0 | 0.00 | 0.00 | 0.00 | 41 | 1024.3 |
| 20260506163325 | 13 | 298 | 3.2 | 6.4 | 0.00 | 0.00 | 0.00 | 39 | 1024.0 |
| 20260506162815 | 12 | 138 | 0.0 | 0.0 | 0.00 | 0.00 | 0.00 | 43 | 1024.2 |
| 20260506162314 | 12 | 85 | 1.6 | 3.2 | 0.00 | 0.00 | 0.00 | 43 | 1024.3 |
| 20260506161810 | 12 | 138 | 1.6 | 3.2 | 0.00 | 0.00 | 0.00 | 42 | 1024.2 |
| 20260506161308 | 12 | 140 | 3.2 | 4.8 | 0.00 | 0.00 | 0.00 | 42 | 1024.4 |
| 20260506160800 | 12 | 159 | 0.0 | 1.6 | 0.00 | 0.00 | 0.00 | 44 | 1024.0 |
| 20260506160256 | 12 | 97 | 3.2 | 4.8 | 0.00 | 0.00 | 0.00 | 44 | 1024.2 |
| 20260506155755 | 12 | 140 | 0.0 | 0.0 | 0.00 | 0.00 | 0.00 | 46 | 1024.2 |
| 20260506155251 | 12 | 141 | 0.0 | 0.0 | 0.00 | 0.00 | 0.00 | 47 | 1024.2 |
| 20260506153404 | 11 | 162 | 0.0 | 1.6 | 0.00 | 0.00 | 0.00 | 49 | 1024.3 |
| 20260506152901 | 10 | 184 | 1.6 | 4.8 | 0.00 | 0.00 | 0.00 | 50 | 1024.4 |
| 20260506152358 | 10 | 189 | 3.2 | 4.8 | 0.00 | 0.00 | 0.00 | 50 | 1024.3 |
| 20260506151856 | 10 | 138 | 0.0 | 0.0 | 0.00 | 0.00 | 0.00 | 51 | 1024.2 |
| 20260506151353 | 10 | 126 | 3.2 | 3.2 | 0.00 | 0.00 | 0.00 | 50 | 1024.2 |
| 20260506150850 | 10 | 313 | 1.6 | 3.2 | 0.00 | 0.00 | 0.00 | 53 | 1024.2 |
| 20260506150346 | 10 | 172 | 3.2 | 3.2 | 0.00 | 0.00 | 0.00 | 52 | 1024.2 |
| 20260506145843 | 9 | 149 | 1.6 | 1.6 | 0.00 | 0.00 | 0.00 | 53 | 1024.0 |
| 20260506145340 | 8 | 131 | 0.0 | 1.6 | 0.00 | 0.00 | 0.00 | 57 | 1023.9 |
| 20260506144837 | 8 | 133 | 0.0 | 0.0 | 0.00 | 0.00 | 0.00 | 58 | 1023.9 |
| 20260506144334 | 8 | 140 | 0.0 | 1.6 | 0.00 | 0.00 | 0.00 | 56 | 1024.3 |
| 20260506143832 | 8 | 146 | 1.6 | 3.2 | 0.00 | 0.00 | 0.00 | 57 | 1024.2 |
| 20260506143329 | 8 | 142 | 0.0 | 0.0 | 0.00 | 0.00 | 0.00 | 62 | 1024.3 |
| 20260506142827 | 7 | 140 | 0.0 | 0.0 | 0.00 | 0.00 | 0.00 | 64 | 1024.4 |
| 20260506142325 | 7 | 149 | 0.0 | 0.0 | 0.00 | 0.00 | 0.00 | 67 | 1024.3 |
| 20260506141823 | 6 | 135 | 0.0 | 0.0 | 0.00 | 0.00 | 0.00 | 68 | 1024.2 |
| 20260506141321 | 5 | 164 | 1.6 | 3.2 | 0.00 | 0.00 | 0.00 | 73 | 1023.9 |
| 20260506140818 | 5 | 131 | 0.0 | 0.0 | 0.00 | 0.00 | 0.00 | 77 | 1023.9 |
| 20260506140315 | 4 | 140 | 0.0 | 0.0 | 0.00 | 0.00 | 0.00 | 78 | 1023.9 |
| 20260506135812 | 2 | 137 | 0.0 | 0.0 | 0.00 | 0.00 | 0.00 | 85 | 1023.9 |
| 20260506135308 | 2 | 131 | 0.0 | 0.0 | 0.00 | 0.00 | 0.00 | 90 | 1024.2 |
| 20260506134805 | 1 | 129 | 0.0 | 0.0 | 0.00 | 0.00 | 0.00 | 94 | 1024.0 |
| 20260506134301 | 1 | 134 | 0.0 | 0.0 | 0.00 | 0.00 | 0.00 | 95 | 1024.0 |
| 20260506133759 | 0 | 130 | 0.0 | 0.0 | 0.00 | 0.00 | 0.00 | 96 | 1023.9 |
| 20260506133255 | 0 | 132 | 0.0 | 0.0 | 0.00 | 0.00 | 0.00 | 96 | 1023.9 |
| 20260506132752 | 0 | 130 | 0.0 | 0.0 | 0.00 | 0.00 | 0.00 | 96 | 1023.7 |
| 20260506132249 | 0 | 132 | 0.0 | 0.0 | 0.00 | 0.00 | 0.00 | 96 | 1023.8 |
| 20260506131747 | -1 | 129 | 0.0 | 0.0 | 0.00 | 0.00 | 0.00 | 96 | 1023.9 |
| 20260506131243 | -1 | 132 | 0.0 | 0.0 | 0.00 | 0.00 | 0.00 | 96 | 1023.9 |
| 20260506130740 | -2 | 136 | 0.0 | 0.0 | 0.00 | 0.00 | 0.00 | 96 | 1023.9 |
| 20260506130237 | -2 | 135 | 0.0 | 0.0 | 0.00 | 0.00 | 0.00 | 96 | 1023.9 |
| 20260506125735 | -2 | 138 | 0.0 | 0.0 | 0.00 | 0.00 | 0.00 | 96 | 1024.0 |
| 20260506125233 | -2 | 136 | 0.0 | 0.0 | 0.00 | 0.00 | 0.00 | 96 | 1023.8 |
| 20260506124731 | -2 | 138 | 0.0 | 0.0 | 0.00 | 0.00 | 0.00 | 96 | 1023.7 |
| 20260506124228 | -2 | 136 | 0.0 | 0.0 | 0.00 | 0.00 | 0.00 | 96 | 1023.8 |
| 20260506123725 | -3 | 135 | 0.0 | 0.0 | 0.00 | 0.00 | 0.00 | 96 | 1023.6 |
| 20260506123224 | -2 | 135 | 0.0 | 0.0 | 0.00 | 0.00 | 0.00 | 96 | 1023.6 |
| 20260506122720 | -3 | 135 | 0.0 | 0.0 | 0.00 | 0.00 | 0.00 | 96 | 1023.3 |
| 20260506122218 | -2 | 135 | 0.0 | 0.0 | 0.00 | 0.00 | 0.00 | 96 | 1023.7 |
| 20260506121716 | -2 | 135 | 0.0 | 0.0 | 0.00 | 0.00 | 0.00 | 96 | 1023.3 |
| 20260506121212 | -2 | 135 | 0.0 | 0.0 | 0.00 | 0.00 | 0.00 | 96 | 1023.3 |
| 20260506120710 | -2 | 135 | 0.0 | 0.0 | 0.00 | 0.00 | 0.00 | 96 | 1022.9 |
| 20260506120207 | -2 | 135 | 0.0 | 0.0 | 0.00 | 0.00 | 0.00 | 96 | 1023.1 |
| 20260506115705 | -2 | 138 | 0.0 | 0.0 | 0.00 | 0.00 | 0.00 | 96 | 1023.2 |
| 20260506115203 | -2 | 133 | 0.0 | 0.0 | 0.00 | 0.00 | 0.00 | 96 | 1023.1 |
| 20260506114700 | -2 | 133 | 0.0 | 0.0 | 0.00 | 0.00 | 0.00 | 96 | 1023.1 |
| 20260506114158 | -2 | 132 | 0.0 | 0.0 | 0.00 | 0.00 | 0.00 | 96 | 1023.1 |
| 20260506113656 | -2 | 132 | 0.0 | 0.0 | 0.00 | 0.00 | 0.00 | 96 | 1023.1 |
| 20260506113153 | -2 | 136 | 0.0 | 0.0 | 0.00 | 0.00 | 0.00 | 96 | 1022.9 |
| 20260506112649 | -2 | 137 | 0.0 | 0.0 | 0.00 | 0.00 | 0.00 | 96 | 1022.9 |
| 20260506112147 | -2 | 138 | 0.0 | 0.0 | 0.00 | 0.00 | 0.00 | 96 | 1022.9 |
| 20260506111644 | -2 | 136 | 0.0 | 0.0 | 0.00 | 0.00 | 0.00 | 96 | 1022.9 |
| 20260506111142 | -2 | 138 | 0.0 | 0.0 | 0.00 | 0.00 | 0.00 | 96 | 1022.9 |
| 20260506110639 | -2 | 136 | 0.0 | 0.0 | 0.00 | 0.00 | 0.00 | 96 | 1022.8 |
| 20260506110137 | -2 | 139 | 0.0 | 0.0 | 0.00 | 0.00 | 0.00 | 96 | 1022.9 |
| 20260506105633 | -2 | 140 | 0.0 | 0.0 | 0.00 | 0.00 | 0.00 | 96 | 1022.8 |
| 20260506105130 | -1 | 140 | 0.0 | 0.0 | 0.00 | 0.00 | 0.00 | 96 | 1022.7 |
| 20260506104628 | -1 | 140 | 0.0 | 0.0 | 0.00 | 0.00 | 0.00 | 96 | 1022.9 |
| 20260506104125 | -1 | 141 | 0.0 | 0.0 | 0.00 | 0.00 | 0.00 | 96 | 1022.6 |
| 20260506103623 | -1 | 156 | 0.0 | 0.0 | 0.00 | 0.00 | 0.00 | 96 | 1022.6 |
| 20260506103119 | -2 | 137 | 0.0 | 0.0 | 0.00 | 0.00 | 0.00 | 96 | 1022.7 |
| 20260506102618 | -1 | 137 | 0.0 | 0.0 | 0.00 | 0.00 | 0.00 | 96 | 1022.6 |
| 20260506102115 | -1 | 140 | 0.0 | 0.0 | 0.00 | 0.00 | 0.00 | 96 | 1022.6 |
| 20260506101611 | -2 | 147 | 0.0 | 0.0 | 0.00 | 0.00 | 0.00 | 96 | 1022.6 |
| 20260506101108 | -2 | 142 | 0.0 | 0.0 | 0.00 | 0.00 | 0.00 | 96 | 1022.6 |
| 20260506100607 | -2 | 138 | 0.0 | 0.0 | 0.00 | 0.00 | 0.00 | 96 | 1022.2 |
| 20260506100104 | -1 | 136 | 0.0 | 0.0 | 0.00 | 0.00 | 0.00 | 96 | 1022.6 |
| 20260506095603 | -1 | 140 | 0.0 | 0.0 | 0.00 | 0.00 | 0.00 | 96 | 1022.3 |
| 20260506095059 | -1 | 138 | 0.0 | 0.0 | 0.00 | 0.00 | 0.00 | 96 | 1022.2 |
| 20260506094557 | -1 | 176 | 0.0 | 0.0 | 0.00 | 0.00 | 0.00 | 96 | 1022.4 |
| 20260506094054 | -1 | 139 | 0.0 | 0.0 | 0.00 | 0.00 | 0.00 | 96 | 1022.3 |
| 20260506093552 | -1 | 140 | 0.0 | 0.0 | 0.00 | 0.00 | 0.00 | 96 | 1022.3 |
| 20260506093049 | -2 | 139 | 0.0 | 0.0 | 0.00 | 0.00 | 0.00 | 96 | 1022.2 |
| 20260506092548 | -2 | 137 | 0.0 | 0.0 | 0.00 | 0.00 | 0.00 | 96 | 1022.0 |
| 20260506092044 | -2 | 137 | 0.0 | 0.0 | 0.00 | 0.00 | 0.00 | 96 | 1022.3 |
| 20260506091542 | -2 | 136 | 0.0 | 0.0 | 0.00 | 0.00 | 0.00 | 96 | 1022.3 |
| 20260506091039 | -2 | 136 | 0.0 | 0.0 | 0.00 | 0.00 | 0.00 | 96 | 1022.3 |
| 20260506090537 | -2 | 136 | 0.0 | 0.0 | 0.00 | 0.00 | 0.00 | 96 | 1022.1 |
| 20260506090033 | -1 | 136 | 0.0 | 0.0 | 0.00 | 0.00 | 0.00 | 96 | 1022.1 |
| 20260506085530 | -1 | 136 | 0.0 | 0.0 | 0.00 | 0.00 | 0.00 | 96 | 1022.1 |
| 20260506085026 | -1 | 132 | 0.0 | 0.0 | 0.00 | 0.00 | 0.00 | 96 | 1022.2 |
| 20260506084524 | -1 | 135 | 0.0 | 0.0 | 0.00 | 0.00 | 0.00 | 96 | 1022.1 |
| 20260506084020 | -1 | 135 | 0.0 | 0.0 | 0.00 | 0.00 | 0.00 | 96 | 1022.2 |
| 20260506083517 | -1 | 136 | 0.0 | 0.0 | 0.00 | 0.00 | 0.00 | 96 | 1022.3 |
| 20260506083014 | -1 | 136 | 0.0 | 0.0 | 0.00 | 0.00 | 0.00 | 96 | 1022.2 |
| 20260506082511 | -1 | 135 | 0.0 | 0.0 | 0.00 | 0.00 | 0.00 | 96 | 1022.3 |
| 20260506082007 | -1 | 135 | 0.0 | 0.0 | 0.00 | 0.00 | 0.00 | 95 | 1022.3 |
| 20260506081505 | -1 | 135 | 0.0 | 0.0 | 0.00 | 0.00 | 0.00 | 95 | 1022.3 |
| 20260506081002 | -1 | 136 | 0.0 | 0.0 | 0.00 | 0.00 | 0.00 | 95 | 1022.3 |
| 20260506080459 | -1 | 136 | 0.0 | 0.0 | 0.00 | 0.00 | 0.00 | 95 | 1022.3 |